Hourly Weather Aracaju

Today, 9 August, Sunday

Time Temperature Precipitation Wind Pressure Humidity
00:00 +25°C° 0.7 mm 5 mps 764 mmHg 88%
01:00 +25°C° 0.7 mm 5 mps 763 mmHg 88%
02:00 +23°C° 0.6 mm 5 mps 763 mmHg 88%
03:00 +23°C° 0.6 mm 4 mps 763 mmHg 88%
04:00 +23°C° 0.6 mm 4 mps 762 mmHg 88%
05:00 +23°C° 0.6 mm 4 mps 762 mmHg 88%
06:00 +23°C° 0.6 mm 4 mps 762 mmHg 89%
07:00 +23°C° 0.6 mm 4 mps 763 mmHg 89%
08:00 +25°C° 0.6 mm 5 mps 763 mmHg 87%
09:00 +25°C° 0.6 mm 5 mps 763 mmHg 84%
10:00 +26°C° 0.6 mm 5 mps 764 mmHg 82%
11:00 +26°C° 0.5 mm 5 mps 764 mmHg 81%
12:00 +26°C° 0.5 mm 5 mps 763 mmHg 81%
13:00 +27°C° 0.5 mm 5 mps 763 mmHg 80%
14:00 +27°C° 0.2 mm 5 mps 762 mmHg 79%
15:00 +27°C° 0.2 mm 5 mps 762 mmHg 78%
16:00 +27°C° 0.2 mm 5 mps 761 mmHg 77%
17:00 +26°C° 0.2 mm 5 mps 761 mmHg 80%
18:00 +25°C° 0.2 mm 5 mps 762 mmHg 82%
19:00 +25°C° 0.2 mm 4 mps 762 mmHg 85%
20:00 +25°C° 0.3 mm 4 mps 762 mmHg 86%
21:00 +23°C° 0.3 mm 4 mps 763 mmHg 86%
22:00 +23°C° 0.3 mm 4 mps 763 mmHg 87%
23:00 +23°C° 0.2 mm 4 mps 763 mmHg 86%

Tomorrow, 10 August, Monday

Time Temperature Precipitation Wind Pressure Humidity
00:00 +23°C° 0.2 mm 4 mps 763 mmHg 86%
01:00 +23°C° 0.2 mm 4 mps 763 mmHg 86%
02:00 +23°C° 0.1 mm 4 mps 762 mmHg 85%
03:00 +23°C° 0.1 mm 4 mps 761 mmHg 85%
04:00 +22°C° 0.1 mm 3 mps 761 mmHg 84%
05:00 +22°C° 0 mm 3 mps 761 mmHg 84%
06:00 +22°C° 0 mm 3 mps 761 mmHg 83%
07:00 +23°C° 0 mm 2 mps 762 mmHg 82%
08:00 +24°C° 0.1 mm 3 mps 762 mmHg 79%
09:00 +25°C° 0.1 mm 3 mps 762 mmHg 76%
10:00 +27°C° 0.1 mm 3 mps 763 mmHg 73%
11:00 +27°C° 0.1 mm 4 mps 762 mmHg 71%
12:00 +28°C° 0.1 mm 4 mps 762 mmHg 69%
13:00 +28°C° 0.1 mm 4 mps 762 mmHg 66%
14:00 +28°C° 0.2 mm 4 mps 761 mmHg 70%
15:00 +27°C° 0.2 mm 4 mps 760 mmHg 73%
16:00 +27°C° 0.2 mm 4 mps 760 mmHg 76%
17:00 +26°C° 0 mm 4 mps 760 mmHg 78%
18:00 +25°C° 0 mm 4 mps 760 mmHg 79%
19:00 +25°C° 0 mm 3 mps 760 mmHg 81%
20:00 +24°C° 0 mm 3 mps 761 mmHg 82%
21:00 +24°C° 0 mm 3 mps 761 mmHg 83%
22:00 +24°C° 0 mm 3 mps 762 mmHg 84%
23:00 +23°C° 0.1 mm 4 mps 762 mmHg 84%

Day after tomorrow, 11 August, Tuesday

Time Temperature Precipitation Wind Pressure Humidity
00:00 +23°C° 0.1 mm 4 mps 761 mmHg 84%
01:00 +23°C° 0.1 mm 4 mps 761 mmHg 84%
02:00 +24°C° 0 mm 3 mps 761 mmHg 84%
03:00 +22°C° 0 mm 3 mps 760 mmHg 84%
04:00 +23°C° 0 mm 2 mps 760 mmHg 85%
05:00 +23°C° 0.1 mm 2 mps 760 mmHg 85%
06:00 +23°C° 0.1 mm 2 mps 760 mmHg 86%
07:00 +23°C° 0.1 mm 2 mps 760 mmHg 87%
08:00 +24°C° 0.3 mm 2 mps 761 mmHg 85%
09:00 +25°C° 0.3 mm 3 mps 761 mmHg 82%
10:00 +26°C° 0.3 mm 3 mps 762 mmHg 80%
11:00 +27°C° 0.1 mm 3 mps 761 mmHg 78%
12:00 +27°C° 0.1 mm 4 mps 761 mmHg 76%
13:00 +27°C° 0.1 mm 4 mps 761 mmHg 74%
14:00 +27°C° 0 mm 4 mps 760 mmHg 73%
15:00 +27°C° 0 mm 4 mps 760 mmHg 72%
16:00 +27°C° 0 mm 4 mps 759 mmHg 71%
17:00 +26°C° 0 mm 4 mps 759 mmHg 75%
18:00 +25°C° 0 mm 4 mps 760 mmHg 79%
19:00 +24°C° 0 mm 3 mps 760 mmHg 83%
20:00 +23°C° 0.1 mm 4 mps 760 mmHg 84%
21:00 +23°C° 0.1 mm 4 mps 761 mmHg 84%
22:00 +23°C° 0.1 mm 4 mps 761 mmHg 85%
23:00 +23°C° 0 mm 4 mps 761 mmHg 85%

12 August, Wednesday

Time Temperature Precipitation Wind Pressure Humidity
00:00 +23°C° 0 mm 4 mps 761 mmHg 85%
01:00 +22°C° 0 mm 4 mps 761 mmHg 85%
02:00 +22°C° 0 mm 4 mps 760 mmHg 85%
03:00 +22°C° 0 mm 3 mps 760 mmHg 84%
04:00 +22°C° 0 mm 3 mps 760 mmHg 84%
05:00 +22°C° 0 mm 3 mps 760 mmHg 83%
06:00 +22°C° 0 mm 3 mps 760 mmHg 83%
07:00 +22°C° 0 mm 3 mps 760 mmHg 83%
08:00 +25°C° 0.1 mm 3 mps 761 mmHg 79%
09:00 +26°C° 0.1 mm 3 mps 761 mmHg 75%
10:00 +27°C° 0.1 mm 3 mps 761 mmHg 71%
11:00 +27°C° 0 mm 4 mps 761 mmHg 69%
12:00 +28°C° 0 mm 4 mps 760 mmHg 68%
13:00 +28°C° 0 mm 4 mps 760 mmHg 66%
14:00 +28°C° 0 mm 4 mps 759 mmHg 67%
15:00 +28°C° 0 mm 4 mps 759 mmHg 69%
16:00 +27°C° 0 mm 4 mps 758 mmHg 70%
17:00 +26°C° 0 mm 4 mps 759 mmHg 74%
18:00 +25°C° 0 mm 3 mps 759 mmHg 78%
19:00 +24°C° 0 mm 3 mps 759 mmHg 83%
20:00 +24°C° 0 mm 3 mps 760 mmHg 83%
21:00 +24°C° 0 mm 3 mps 760 mmHg 83%
22:00 +24°C° 0 mm 3 mps 760 mmHg 84%
23:00 +24°C° 0 mm 3 mps 760 mmHg 85%

13 August, Thursday

Time Temperature Precipitation Wind Pressure Humidity
00:00 +23°C° 0 mm 2 mps 760 mmHg 85%
01:00 +23°C° 0 mm 2 mps 760 mmHg 86%
02:00 +23°C° 0.1 mm 2 mps 759 mmHg 87%
03:00 +23°C° 0.1 mm 2 mps 759 mmHg 88%
04:00 +23°C° 0.1 mm 2 mps 759 mmHg 89%
05:00 +23°C° 0.1 mm 2 mps 759 mmHg 89%
06:00 +23°C° 0.1 mm 2 mps 759 mmHg 88%
07:00 +23°C° 0.1 mm 2 mps 760 mmHg 88%
08:00 +25°C° 0.1 mm 3 mps 760 mmHg 84%
09:00 +26°C° 0.1 mm 3 mps 760 mmHg 80%
10:00 +27°C° 0.1 mm 4 mps 761 mmHg 76%
11:00 +28°C° 0.1 mm 4 mps 760 mmHg 74%
12:00 +28°C° 0.1 mm 5 mps 760 mmHg 72%
13:00 +29°C° 0.1 mm 5 mps 760 mmHg 70%
14:00 +28°C° 0.2 mm 5 mps 759 mmHg 73%
15:00 +28°C° 0.2 mm 5 mps 759 mmHg 75%
16:00 +27°C° 0.2 mm 5 mps 758 mmHg 78%
17:00 +27°C° 0.1 mm 5 mps 759 mmHg 80%
18:00 +26°C° 0.1 mm 5 mps 759 mmHg 82%
19:00 +25°C° 0.1 mm 4 mps 759 mmHg 85%
20:00 +25°C° 0.1 mm 4 mps 760 mmHg 84%
21:00 +25°C° 0.1 mm 4 mps 760 mmHg 84%
22:00 +25°C° 0.1 mm 4 mps 760 mmHg 84%
23:00 +25°C° 0 mm 4 mps 760 mmHg 84%

14 August, Friday

Time Temperature Precipitation Wind Pressure Humidity
00:00 +25°C° 0 mm 4 mps 760 mmHg 85%
01:00 +23°C° 0 mm 4 mps 760 mmHg 85%
02:00 +23°C° 0 mm 4 mps 759 mmHg 85%
03:00 +23°C° 0 mm 4 mps 759 mmHg 86%
04:00 +24°C° 0 mm 3 mps 758 mmHg 86%
05:00 +24°C° 0 mm 3 mps 759 mmHg 86%
06:00 +23°C° 0 mm 4 mps 759 mmHg 86%
07:00 +23°C° 0 mm 4 mps 759 mmHg 86%
08:00 +25°C° 0 mm 4 mps 759 mmHg 82%
09:00 +26°C° 0 mm 4 mps 760 mmHg 78%
10:00 +27°C° 0 mm 4 mps 760 mmHg 74%
11:00 +27°C° 0 mm 4 mps 760 mmHg 72%
12:00 +27°C° 0 mm 4 mps 759 mmHg 70%
13:00 +28°C° 0 mm 4 mps 759 mmHg 68%
14:00 +28°C° 0 mm 4 mps 758 mmHg 67%
15:00 +27°C° 0 mm 4 mps 758 mmHg 67%
16:00 +27°C° 0 mm 4 mps 758 mmHg 66%
17:00 +26°C° 0 mm 3 mps 758 mmHg 70%
18:00 +25°C° 0 mm 3 mps 758 mmHg 75%
19:00 +24°C° 0 mm 3 mps 759 mmHg 79%
20:00 +24°C° 0 mm 2 mps 759 mmHg 80%
21:00 +24°C° 0 mm 2 mps 759 mmHg 81%
22:00 +24°C° 0 mm 2 mps 760 mmHg 82%
23:00 +24°C° 0.2 mm 2 mps 759 mmHg 84%
Show more